This is the latest recevied weather packets stored in our database for station/object SV7GBF-2. If no packets are shown the sender has not sent any weather packets the latest 10 day(s).
| Time | Temp. | Humidity | Pressure | Rain* | Wind** | Luminosity | Snow |
|---|---|---|---|---|---|---|---|
| 1788162243 | 27.22° C | 36% | 1017 hPa | - | - | - | - |
| 1788161644 | 27.22° C | 38% | 1017 hPa | - | - | - | - |
| 1788161044 | 26.67° C | 44% | 1017 hPa | - | - | - | - |
| 1788160443 | 26.67° C | 48% | 1017 hPa | - | - | - | - |
| 1788159843 | 26.11° C | 52% | 1017 hPa | - | - | - | - |
| 1788159243 | 26.11° C | 54% | 1017 hPa | - | - | - | - |
| 1788158643 | 26.11° C | 57% | 1017 hPa | - | - | - | - |
| 1788158043 | 25.56° C | 54% | 1017 hPa | - | - | - | - |
| 1788157442 | 25.56° C | 57% | 1017 hPa | - | - | - | - |
| 1788156843 | 25° C | 58% | 1017 hPa | - | - | - | - |
| 1788156243 | 24.44° C | 58% | 1017 hPa | - | - | - | - |
| 1788155643 | 23.89° C | 58% | 1017 hPa | - | - | - | - |
| 1788155043 | 23.33° C | 58% | 1017 hPa | - | - | - | - |
| 1788154443 | 23.33° C | 57% | 1017 hPa | - | - | - | - |
| 1788153841 | 23.33° C | 58% | 1017 hPa | - | - | - | - |
| 1788153241 | 22.78° C | 58% | 1017 hPa | - | - | - | - |
| 1788152641 | 22.78° C | 58% | 1016 hPa | - | - | - | - |
| 1788152041 | 22.22° C | 58% | 1017 hPa | - | - | - | - |
| 1788151445 | 22.22° C | 58% | 1017 hPa | - | - | - | - |
| 1788150843 | 21.67° C | 59% | 1017 hPa | - | - | - | - |
| 1788150243 | 21.67° C | 58% | 1017 hPa | - | - | - | - |
| 1788149644 | 21.67° C | 59% | 1017 hPa | - | - | - | - |
| 1788149043 | 21.67° C | 55% | 1016 hPa | - | - | - | - |
| 1788148443 | 22.22° C | 53% | 1016 hPa | - | - | - | - |
| 1788147843 | 22.22° C | 54% | 1016 hPa | - | - | - | - |
* Rain since midnight (hover to see other rain measurements)
** Current wind speed in m/s (hover to see current wind gust speed)